User: anonymous   Login
Location: Bandys
(35.4750°N, 81.0830°W)
Time: 16:33:37
(UTC-04:00)
Language:

DELTA 2 R/B (1) - Orbit

View from above orbital plane
View from above orbital plane
View from above satellite
View from above satellite

Ground track
Ground track

The orbit data is extracted from the following two-line orbital elements,

1 27665U 03005C   16239.91404506 +.00000003 +00000-0 +34718-4 0  9994
2 27665 039.5754 168.6167 0009050 163.6596 263.8643 14.28416417708753
Epoch (UTC): 26 August 2016 21:56:13
Eccentricity: 0.0009050
inclination: 39.5754°
perigee height: 790 km
apogee height: 803 km
right ascension of ascending node: 168.6167°
argument of perigee: 163.6596°
revolutions per day: 14.28416417
mean anomaly at epoch: 263.8643°
orbit number at epoch: 70875

The dashed part of the orbit path shows where the satellite is in the earth's shadow,  

DLR